This is the latest recevied weather packets stored in our database for station/object KO5MO-11. If no packets are shown the sender has not sent any weather packets the latest 10 day(s).
| Time | Temp. | Humidity | Pressure | Rain* | Wind** | Luminosity | Snow |
|---|---|---|---|---|---|---|---|
| 1777863872 | 26.11° C | 36% | 1006.4 hPa | - | - | 794 W/m² | - |
| 1777863272 | 24.44° C | 43% | 1006.1 hPa | - | - | 769 W/m² | - |
| 1777862672 | 23.33° C | 37% | 1005.7 hPa | - | - | 749 W/m² | - |
| 1777862072 | 23.89° C | 37% | 1005.6 hPa | - | - | 753 W/m² | - |
| 1777861472 | 24.44° C | 37% | 1005.4 hPa | - | - | 764 W/m² | - |
| 1777860872 | 26.11° C | 36% | 1005.2 hPa | - | - | 798 W/m² | - |
| 1777860272 | 24.44° C | 42% | 1005.2 hPa | - | - | 767 W/m² | - |
| 1777859672 | 23.89° C | 38% | 1004.7 hPa | - | - | 751 W/m² | - |
| 1777859073 | 23.89° C | 37% | 1004.7 hPa | - | - | 757 W/m² | - |
| 1777858472 | 24.44° C | 37% | 1004.6 hPa | - | - | 769 W/m² | - |
| 1777857872 | 26.11° C | 38% | 1004.5 hPa | - | - | 793 W/m² | - |
| 1777857272 | 23.89° C | 40% | 1004.6 hPa | - | - | 757 W/m² | - |
| 1777856672 | 23.89° C | 38% | 1004.6 hPa | - | - | 753 W/m² | - |
| 1777856072 | 23.89° C | 38% | 1004.5 hPa | - | - | 756 W/m² | - |
| 1777855472 | 24.44° C | 37% | 1004.6 hPa | - | - | 765 W/m² | - |
| 1777854872 | 26.67° C | 36% | 1004.5 hPa | - | - | 800 W/m² | - |
| 1777854272 | 25° C | 43% | 1004.5 hPa | - | - | 770 W/m² | - |
| 1777853672 | 23.89° C | 38% | 1004.5 hPa | - | - | 754 W/m² | - |
| 1777853072 | 23.89° C | 38% | 1004.6 hPa | - | - | 759 W/m² | - |
| 1777852472 | 23.89° C | 38% | 1004.5 hPa | - | - | 759 W/m² | - |
| 1777851872 | 25° C | 37% | 1004.5 hPa | - | - | 774 W/m² | - |
| 1777851272 | 26.11° C | 37% | 1004.5 hPa | - | - | 796 W/m² | - |
| 1777850672 | 23.89° C | 38% | 1004.5 hPa | - | - | 752 W/m² | - |
| 1777850072 | 23.89° C | 38% | 1004.6 hPa | - | - | 754 W/m² | - |
| 1777849472 | 24.44° C | 37% | 1004.7 hPa | - | - | 761 W/m² | - |
* Rain since midnight (hover to see other rain measurements)
** Current wind speed in m/s (hover to see current wind gust speed)